Location: Sternwarte ZA, Rosenfeld-Brittheim
(48.2889°N, 8.6789°E)
Time: 06:09:49
(UTC+01:00)

ISS - Pass Details

Date: 04 December 2021
Orbit: 413 x 423 km, 51.6° (Epoch: 20 January)

Event Time Altitude Azimuth Distance (km) Brightness Sun altitude
Rises 17:53:28 0° 291° (WNW) 2,384 0.9 -12.9°
Reaches altitude 10° 17:55:35 10° 292° (WNW) 1,515 -0.2 -13.3°
Maximum altitude 17:58:59 88° 17° (NNE) 428 -3.8 -13.8°
Enters shadow 18:01:07 21° 112° (ESE) 1,005 -2.3 -14.2°
